This demonstration page uses our WeatherBlox Daily Observations layout. Learn more.

Left ArrowRight Arrow

53.62937, 11.41316

Hourly Observations for May 27, 2021

Temp ( °F °C ) Dew Point ( °F °C ) Humidity (%) Winds ( mph kmh ) Pressure ( in mb ) Visibility ( mi km ) Precip ( " mm )
7:20 am 07:20 Mostly Cloudy 48 9 48 9 100 100 S 12 19 29.71 1006 30 48 N/A
7:50 am 07:50 Mostly Cloudy with Light Rain 48 9 48 9 100 100 S 10 17 29.71 1006 30 48 N/A
8:20 am 08:20 Mostly Cloudy 50 10 48 9 94 94 S 10 17 29.71 1006 30 48 N/A
8:50 am 08:50 Mostly Cloudy 50 10 48 9 94 94 S 12 19 29.74 1007 30 48 N/A
9:20 am 09:20 Mostly Cloudy 52 11 48 9 88 88 SSW 10 17 29.74 1007 30 48 N/A
9:50 am 09:50 Mostly Cloudy 54 12 48 9 82 82 SSW 10 17 29.74 1007 30 48 N/A
10:20 am 10:20 Mostly Cloudy 54 12 48 9 82 82 SSW 10 17 29.74 1007 30 48 N/A
10:50 am 10:50 Mostly Cloudy 52 11 50 10 94 94 SW 12 19 29.77 1008 30 48 N/A
11:20 am 11:20 Partly Cloudy 52 11 50 10 94 94 WSW 5 7 29.77 1008 30 48 N/A
11:50 am 11:50 Mostly Cloudy 54 12 50 10 88 88 WSW 6 9 29.80 1009 30 48 N/A
12:20 pm 12:20 Partly Cloudy with Showers Nearby 55 13 52 11 88 88 SW 6 9 29.80 1009 30 48 N/A
12:50 pm 12:50 Partly Cloudy with Showers Nearby 55 13 50 10 82 82 WSW 6 9 29.80 1009 30 48 N/A
1:20 pm 13:20 Partly Cloudy with Showers Nearby 55 13 48 9 77 77 VRB 5 7 29.83 1010 30 48 N/A
1:50 pm 13:50 Partly Cloudy with Showers Nearby 55 13 48 9 77 77 VRB 5 7 29.83 1010 30 48 N/A
2:20 pm 14:20 Partly Cloudy with Showers Nearby 57 14 46 8 67 67 VRB 6 9 29.83 1010 30 48 N/A
2:50 pm 14:50 Partly Cloudy 55 13 46 8 72 72 VRB 3 6 29.86 1011 30 48 N/A
3:20 pm 15:20 Partly Cloudy 59 15 48 9 68 68 VRB 3 6 29.85 1011 30 48 N/A
3:50 pm 15:50 Partly Cloudy 57 14 46 8 67 67 VRB 3 6 29.88 1012 30 48 N/A
4:20 pm 16:20 Partly Cloudy 57 14 46 8 67 67 NW 8 13 29.88 1012 30 48 N/A
4:50 pm 16:50 Partly Cloudy 57 14 46 8 67 67 VRB 3 6 29.88 1012 30 48 N/A
5:20 pm 17:20 Mostly Sunny 57 14 46 8 67 67 VRB 3 6 29.91 1013 30 48 N/A
5:50 pm 17:50 Mostly Sunny 57 14 46 8 67 67 VRB 3 6 29.91 1013 30 48 N/A
6:20 pm 18:20 Mostly Sunny 57 14 46 8 67 67 VRB 5 7 29.94 1014 30 48 N/A
6:50 pm 18:50 Partly Cloudy 55 13 46 8 72 72 VRB 3 6 29.94 1014 30 48 N/A
7:20 pm 19:20 Mostly Sunny 55 13 48 9 77 77 VRB 5 7 29.94 1014 30 48 N/A
7:50 pm 19:50 Partly Cloudy 54 12 46 8 77 77 VRB 3 6 29.97 1015 30 48 N/A
8:20 pm 20:20 Mostly Sunny 54 12 46 8 77 77 VRB 2 4 29.97 1015 30 48 N/A
8:50 pm 20:50 Mostly Sunny 54 12 48 9 82 82 VRB 2 4 29.97 1015 7 11 N/A
9:20 pm 21:20 Mostly Sunny 54 12 46 8 77 77 VRB 2 4 30.00 1016 7 11 N/A
9:50 pm 21:50 Mostly Clear 52 11 48 9 88 88 VRB 2 4 30.00 1016 30 48 N/A

Powered by AerisWeather